Regional Weather Roundup
Issued by NWS Kansas City/Pleasant Hill, MO

Home | Current Version | Previous Version | Graphics & Text | Print | Product List | Glossary Off
Versions: 1 2 3 4 5 6 7 8 9 10 11 12 13 14 15 16 17 18 19 20 21 22 23 24 25 26 27 28 29 30 31 32 33 34 35 36 37 38 39 40 41 42 43 44 45 46 47 48 49 50

000
ASUS43 KEAX 252104
RWREAX

WEATHER ROUNDUP FOR EASTERN KANSAS AND NORTHWEST MISSOURI
NATIONAL WEATHER SERVICE KANSAS CITY/PLEASANT HILL MO
400 PM CDT SAT OCT 25 2014

KSZ040-057-103>105-MOZ028-029-037-043-252200-
...KANSAS CITY METROPOLITAN AREA...

CITY           SKY/WX    TMP DP  RH WIND       PRES   REMARKS
K.C. INTL      SUNNY     79  55  43 CALM      30.03F
K.C. DOWNTOWN  SUNNY     82  55  39 VRB3      30.02S
LEES SUMMIT    SUNNY     80  58  46 CALM      30.04S
OLATHE - IXD   SUNNY     80  56  43 SE5       30.03F
OLATHE - OJC   SUNNY     81  59  47 E5        30.02F
LAWRENCE       SUNNY     80  59  48 E6        30.02F

$$

MOZ001>008-011>017-020>025-030>033-038>040-044>046-053-054-252200-
...NORTHERN AND CENTRAL MISSOURI...

CITY           SKY/WX    TMP DP  RH WIND       PRES   REMARKS
ST. JOSEPH     SUNNY     80  47  31 E3        30.03F
MOSBY          CLEAR     81  46  30 CALM      30.02F
WHITEMAN AFB   SUNNY     78  62  58 MISG      30.02F
CLINTON        SUNNY     81  61  50 CALM      30.03S HAZE
SEDALIA        SUNNY     81  60  48 CALM      30.04S
WARSAW         NOT AVBL
MARSHALL       SUNNY     81  57  44 CALM      30.04R
CHILLICOTHE      N/A     79  51  37 VRB3      30.03F
MOBERLY        SUNNY     82  43  24 CALM      30.04S
KIRKSVILLE     SUNNY     78  51  38 N5        30.05S

$$

MOZ041-047>049-056>058-063>065-088>090-097-252200-
...EASTERN AND SOUTHERN MISSOURI...

CITY           SKY/WX    TMP DP  RH WIND       PRES   REMARKS
ST. LOUIS INTL MOSUNNY   82  55  39 W8        30.01F
SPIRIT OF STL  SUNNY     80  52  37 N5        30.00S
COLUMBIA       SUNNY     79  60  52 S3        30.02F
JEFFERSON CITY SUNNY     81  51  35 VRB3      30.00F
MEXICO         SUNNY     81  57  44 CALM      30.03S
ROLLA          SUNNY     79  60  52 N5        30.02F
LEBANON        SUNNY     82  61  47 W3        30.05S
OSAGE BEACH    SUNNY     81  59  47 SW6       30.03S
SPRINGFIELD    SUNNY     83  61  47 CALM      30.03F
BRANSON        SUNNY     84  63  48 NW6       30.06S
NEVADA         SUNNY     82  63  51 CALM      30.03F
JOPLIN         SUNNY     82  64  54 W6        30.04S
WEST PLAINS    SUNNY     82  62  50 SW6       30.04S

$$

IAZ060-094-KSZ022-034>040-054-083-096-NEZ052-066-093-252200-
...KANSAS...SOUTHEAST NEBRASKA AND IOWA...

CITY           SKY/WX    TMP DP  RH WIND       PRES   REMARKS
TOPEKA         SUNNY     82  58  43 SE7       30.02F
MANHATTAN      SUNNY     85  64  49 N8        29.99F
EMPORIA        SUNNY     86  61  42 SE6       30.01S
CHANUTE        SUNNY     84  65  52 SW8       30.02S
WICHITA        SUNNY     90  54  29 S13       30.00F
OMAHA          SUNNY     76  41  28 NE8       30.06F
LINCOLN        SUNNY     74  45  35 NE9       30.07F
FALLS CITY     SUNNY     79  46  31 E6        30.03F
LAMONI         SUNNY     76  48  37 N5        30.06S
DES MOINES     SUNNY     72  37  28 NE8       30.07S

$$




USA.gov is the U.S. government's official web portal to all federal, state and local government web resources and services.